UAE702 FIMP-OMDB

Flight info

Callsign UAE702
Flight time N/A
Altitude 35000
Route DURDA1A DURDA UT401 ALRAN UM313 RERUS/N0506F360 UM313 PRA/N0503F370 UM314 SUHIL R401 VELIK/N0502F380 R401 MUSAP/N0508F350 R401 PEDOG Q308 KIPOK Q568 IMPED
Aircraft A388/J-SADE2E3FGHIJ3J4J5M1RWXY/LB1D1

Departure

Time N/A
Airport Sir Seewoosagur Ramgoolam International Airport (FIMP)

Arrival

Time 2026-05-06 13:18
Airport Dubai International Airport (OMDB)
Time Latitude Longitude Altitude Speed Heading
2026-05-06 13:07 25.08983 55.68532 8641 ft 293 kts 217°
2026-05-06 13:07 25.07338 55.67383 8154 ft 281 kts 204°
2026-05-06 13:07 25.05515 55.66507 7428 ft 286 kts 202°
2026-05-06 13:08 25.03689 55.65661 6956 ft 282 kts 201°
2026-05-06 13:08 25.01835 55.65199 6878 ft 267 kts 179°
2026-05-06 13:08 25.00111 55.65686 6774 ft 252 kts 150°
2026-05-06 13:08 24.98886 55.66982 6672 ft 242 kts 120°
2026-05-06 13:09 24.98447 55.68729 6577 ft 238 kts 89°
2026-05-06 13:09 24.98891 55.70459 6493 ft 236 kts 58°
2026-05-06 13:09 25.00085 55.71671 6409 ft 232 kts 25°
2026-05-06 13:09 25.01604 55.71990 6327 ft 226 kts 354°
2026-05-06 13:10 25.03123 55.71607 6234 ft 222 kts 334°
2026-05-06 13:10 25.04317 55.70570 6156 ft 218 kts 312°
2026-05-06 13:10 25.05346 55.69333 6046 ft 218 kts 311°
2026-05-06 13:10 25.06362 55.68095 5838 ft 217 kts 311°
2026-05-06 13:11 25.07385 55.66869 5611 ft 217 kts 311°
2026-05-06 13:11 25.08402 55.65668 5299 ft 217 kts 312°
2026-05-06 13:11 25.09450 55.64474 4938 ft 215 kts 311°
2026-05-06 13:11 25.10357 55.63240 4657 ft 202 kts 305°
2026-05-06 13:12 25.11135 55.61964 4386 ft 198 kts 302°
2026-05-06 13:12 25.11861 55.60680 4128 ft 196 kts 301°
2026-05-06 13:12 25.12575 55.59394 3880 ft 195 kts 301°
2026-05-06 13:12 25.13280 55.58122 3626 ft 192 kts 302°
2026-05-06 13:13 25.13971 55.56878 3389 ft 192 kts 302°
2026-05-06 13:13 25.14661 55.55628 3152 ft 188 kts 302°
2026-05-06 13:13 25.15349 55.54391 2918 ft 190 kts 302°
2026-05-06 13:13 25.16023 55.53172 2672 ft 186 kts 302°
2026-05-06 13:14 25.16707 55.51941 2447 ft 189 kts 301°
2026-05-06 13:14 25.17390 55.50703 2213 ft 188 kts 301°
2026-05-06 13:14 25.18061 55.49493 1974 ft 180 kts 301°
2026-05-06 13:14 25.18676 55.48382 1753 ft 158 kts 303°
2026-05-06 13:15 25.19203 55.47423 1577 ft 142 kts 305°
2026-05-06 13:15 25.19735 55.46482 1400 ft 145 kts 304°
2026-05-06 13:15 25.20248 55.45536 1216 ft 142 kts 302°
2026-05-06 13:15 25.20749 55.44629 1026 ft 136 kts 304°
2026-05-06 13:16 25.21239 55.43734 882 ft 139 kts 307°
2026-05-06 13:16 25.21744 55.42815 730 ft 141 kts 303°
2026-05-06 13:16 25.22258 55.41896 556 ft 139 kts 305°
2026-05-06 13:16 25.22764 55.40983 376 ft 142 kts 304°
2026-05-06 13:17 25.23288 55.40034 194 ft 146 kts 302°
2026-05-06 13:17 25.23798 55.39104 34 ft 134 kts 305°
2026-05-06 13:17 25.24215 55.38370 31 ft 92 kts 300°
2026-05-06 13:17 25.24495 55.37857 29 ft 66 kts 301°
2026-05-06 13:18 25.24664 55.37556 28 ft 32 kts 302°
2026-05-06 13:18 25.24735 55.37416 27 ft 28 kts 292°
2026-05-06 13:18 25.24777 55.37264 29 ft 19 kts 276°
2026-05-06 13:18 25.24785 55.37162 29 ft 8 kts 274°
2026-05-06 13:19 25.24786 55.37141 28 ft 8 kts 273°
2026-05-06 13:19 25.24788 55.37112 28 ft 10 kts 272°
2026-05-06 13:19 25.24791 55.37023 27 ft 13 kts 272°
2026-05-06 13:19 25.24811 55.36930 27 ft 13 kts 295°
2026-05-06 13:20 25.24848 55.36841 27 ft 12 kts 285°
2026-05-06 13:20 25.24871 55.36744 27 ft 14 kts 284°
2026-05-06 13:20 25.24892 55.36653 26 ft 9 kts 292°
2026-05-06 13:20 25.24930 55.36585 26 ft 11 kts 303°
2026-05-06 13:21 25.24977 55.36508 26 ft 13 kts 304°
2026-05-06 13:21 25.25027 55.36425 26 ft 14 kts 303°
2026-05-06 13:21 25.25072 55.36336 26 ft 7 kts 265°
2026-05-06 13:21 25.25044 55.36303 26 ft 8 kts 210°
2026-05-06 13:22 25.25007 55.36279 31 ft 0 kts 210°
2026-05-06 13:22 25.24989 55.36267 29 ft 6 kts 211°
2026-05-06 13:22 25.24948 55.36239 32 ft 0 kts 211°
2026-05-06 13:22 25.24947 55.36239 32 ft 0 kts 211°
2026-05-06 13:23 25.24937 55.36232 32 ft 0 kts 212°
2026-05-06 13:23 25.24932 55.36228 29 ft 2 kts 212°
2026-05-06 13:23 25.24920 55.36220 31 ft 0 kts 212°
2026-05-06 13:24 25.24927 55.36225 29 ft 0 kts 211°